DLH356 EDDF-LIMC

Flight info

Callsign DLH356
Flight time 1h 0m
Altitude 31000
Route ANEKI2L ANEKI Y163 PABLA/N0447F330 Y163 NATOR DCT TRA DCT RIPUS DCT GERSA DCT SOSON DCT DEGAD Z424 RIXUV
Aircraft A388/J-SADE2E3FGHIJ3J4J5M1RWXY/LB1D1

Departure

Time 2026-04-15 13:39
Airport Frankfurt Main Airport (EDDF)

Arrival

Time 2026-04-15 14:40
Airport Milan Malpensa International Airport (LIMC)
Time Latitude Longitude Altitude Speed Heading
2026-04-15 12:56 50.04695 8.56676 366 ft 0 kts 117°
2026-04-15 13:18 50.04695 8.56675 366 ft 1 kts 117°
2026-04-15 13:19 50.04698 8.56668 371 ft 1 kts 117°
2026-04-15 13:19 50.04699 8.56664 370 ft 0 kts 117°
2026-04-15 13:20 50.04701 8.56658 369 ft 1 kts 117°
2026-04-15 13:20 50.04704 8.56649 369 ft 1 kts 119°
2026-04-15 13:20 50.04708 8.56641 368 ft 1 kts 127°
2026-04-15 13:20 50.04713 8.56635 367 ft 1 kts 140°
2026-04-15 13:21 50.04720 8.56631 368 ft 1 kts 158°
2026-04-15 13:21 50.04726 8.56631 368 ft 1 kts 179°
2026-04-15 13:21 50.04731 8.56633 368 ft 1 kts 192°
2026-04-15 13:21 50.04736 8.56637 367 ft 1 kts 202°
2026-04-15 13:22 50.04745 8.56646 367 ft 2 kts 216°
2026-04-15 13:22 50.04750 8.56654 367 ft 0 kts 227°
2026-04-15 13:29 50.04742 8.56640 395 ft 5 kts 232°
2026-04-15 13:29 50.04704 8.56570 367 ft 11 kts 220°
2026-04-15 13:30 50.04624 8.56496 372 ft 15 kts 207°
2026-04-15 13:30 50.04529 8.56400 369 ft 17 kts 237°
2026-04-15 13:30 50.04477 8.56216 370 ft 20 kts 249°
2026-04-15 13:30 50.04466 8.56173 369 ft 4 kts 248°
2026-04-15 13:31 50.04446 8.56100 369 ft 11 kts 240°
2026-04-15 13:31 50.04375 8.56051 365 ft 14 kts 176°
2026-04-15 13:31 50.04293 8.56139 367 ft 16 kts 127°
2026-04-15 13:31 50.04197 8.56234 366 ft 17 kts 161°
2026-04-15 13:32 50.04117 8.56203 363 ft 8 kts 239°
2026-04-15 13:32 50.04111 8.56188 367 ft 0 kts 243°
2026-04-15 13:32 50.04100 8.56154 365 ft 7 kts 243°
2026-04-15 13:33 50.04071 8.56051 366 ft 13 kts 248°
2026-04-15 13:33 50.04035 8.55900 365 ft 16 kts 251°
2026-04-15 13:33 50.03995 8.55724 365 ft 19 kts 251°
2026-04-15 13:33 50.03949 8.55520 366 ft 20 kts 250°
2026-04-15 13:34 50.03895 8.55305 362 ft 23 kts 249°
2026-04-15 13:34 50.03838 8.55064 356 ft 25 kts 250°
2026-04-15 13:34 50.03777 8.54801 358 ft 26 kts 249°
2026-04-15 13:34 50.03715 8.54542 363 ft 26 kts 249°
2026-04-15 13:35 50.03683 8.54409 363 ft 0 kts 249°
2026-04-15 13:35 50.03673 8.54369 358 ft 7 kts 249°
2026-04-15 13:35 50.03644 8.54247 357 ft 22 kts 250°
2026-04-15 13:35 50.03584 8.53999 356 ft 26 kts 250°
2026-04-15 13:36 50.03546 8.53838 354 ft 1 kts 250°
2026-04-15 13:36 50.03532 8.53779 354 ft 10 kts 249°
2026-04-15 13:36 50.03500 8.53648 354 ft 16 kts 249°
2026-04-15 13:36 50.03451 8.53450 337 ft 22 kts 249°
2026-04-15 13:37 50.03398 8.53221 337 ft 24 kts 250°
2026-04-15 13:37 50.03340 8.52980 354 ft 23 kts 249°
2026-04-15 13:37 50.03302 8.52821 359 ft 12 kts 250°
2026-04-15 13:37 50.03296 8.52797 359 ft 3 kts 250°
2026-04-15 13:38 50.03268 8.52694 356 ft 15 kts 239°
2026-04-15 13:38 50.03180 8.52601 357 ft 18 kts 184°
2026-04-15 13:38 50.03159 8.52599 354 ft 0 kts 181°
2026-04-15 13:38 50.03157 8.52599 354 ft 2 kts 181°
2026-04-15 13:39 50.02952 8.52600 354 ft 76 kts 179°
2026-04-15 13:39 50.02117 8.52610 359 ft 157 kts 179°
2026-04-15 13:39 50.00917 8.52654 727 ft 177 kts 177°
2026-04-15 13:39 49.99684 8.52727 1412 ft 181 kts 176°
2026-04-15 13:40 49.98396 8.52864 2076 ft 195 kts 174°
2026-04-15 13:40 49.96973 8.53013 2761 ft 212 kts 176°
2026-04-15 13:40 49.95437 8.53099 3486 ft 225 kts 177°
2026-04-15 13:40 49.93864 8.53164 4464 ft 227 kts 178°
2026-04-15 13:41 49.92281 8.53241 5450 ft 229 kts 177°
2026-04-15 13:41 49.90679 8.53339 6416 ft 232 kts 178°
2026-04-15 13:41 49.89052 8.53441 7328 ft 236 kts 178°
2026-04-15 13:41 49.87394 8.53549 8203 ft 240 kts 178°
2026-04-15 13:42 49.86280 8.53622 8798 ft 244 kts 178°
2026-04-15 13:42 49.85067 8.53699 9453 ft 246 kts 179°
2026-04-15 13:42 49.83332 8.53809 10332 ft 251 kts 179°
2026-04-15 13:42 49.81573 8.53924 11158 ft 254 kts 179°
2026-04-15 13:43 49.79794 8.54043 12011 ft 258 kts 179°
2026-04-15 13:43 49.77969 8.54132 12844 ft 261 kts 183°
2026-04-15 13:43 49.76154 8.53904 13670 ft 265 kts 187°
2026-04-15 13:43 49.74310 8.53642 14451 ft 268 kts 187°
2026-04-15 13:44 49.72437 8.53387 15153 ft 272 kts 186°
2026-04-15 13:44 49.70540 8.53135 15855 ft 275 kts 186°
2026-04-15 13:44 49.68645 8.52885 16548 ft 278 kts 186°
2026-04-15 13:44 49.66700 8.52629 17235 ft 282 kts 186°
2026-04-15 13:45 49.64737 8.52370 17927 ft 285 kts 187°
2026-04-15 13:45 49.62750 8.52108 18565 ft 288 kts 186°
2026-04-15 13:45 49.60738 8.51843 19117 ft 292 kts 187°
2026-04-15 13:47 49.45102 8.49783 21115 ft 373 kts 186°
2026-04-15 13:47 49.42491 8.49442 21251 ft 387 kts 186°
2026-04-15 13:47 49.39727 8.49082 21456 ft 398 kts 186°
2026-04-15 13:48 49.36942 8.48720 21935 ft 402 kts 186°
2026-04-15 13:48 49.34149 8.48357 22403 ft 405 kts 186°
2026-04-15 13:48 49.31321 8.47989 22892 ft 408 kts 186°
2026-04-15 13:48 49.28509 8.47624 23352 ft 412 kts 186°
2026-04-15 13:49 49.25641 8.47252 23807 ft 415 kts 186°
2026-04-15 13:49 49.22743 8.46876 24198 ft 419 kts 186°
2026-04-15 13:49 49.19832 8.46496 24582 ft 422 kts 186°
2026-04-15 13:49 49.16883 8.46112 24958 ft 426 kts 186°
2026-04-15 13:50 49.13920 8.45728 25360 ft 429 kts 186°
2026-04-15 13:50 49.10935 8.45341 25752 ft 433 kts 186°
2026-04-15 13:50 49.07918 8.44950 26150 ft 436 kts 187°
2026-04-15 13:50 49.04904 8.44285 26569 ft 439 kts 194°
2026-04-15 13:51 49.01920 8.43228 26997 ft 442 kts 195°
2026-04-15 13:51 48.98908 8.42160 27447 ft 446 kts 195°
2026-04-15 13:51 48.95875 8.41096 27900 ft 450 kts 195°
2026-04-15 13:51 48.92954 8.40079 28348 ft 454 kts 195°
2026-04-15 13:52 48.89864 8.39006 28826 ft 458 kts 195°
2026-04-15 13:52 48.86731 8.37920 29282 ft 462 kts 195°
2026-04-15 13:52 48.83574 8.36827 29748 ft 467 kts 195°
2026-04-15 13:52 48.80401 8.35730 30216 ft 471 kts 195°
2026-04-15 13:53 48.77185 8.34614 30641 ft 474 kts 195°
2026-04-15 13:53 48.73961 8.33446 31085 ft 478 kts 195°
2026-04-15 13:53 48.70714 8.32247 31501 ft 481 kts 196°
2026-04-15 13:53 48.67444 8.31041 31919 ft 484 kts 195°
2026-04-15 13:54 48.64154 8.29835 32319 ft 488 kts 195°
2026-04-15 13:54 48.60882 8.28641 32733 ft 491 kts 195°
2026-04-15 13:54 48.57547 8.27428 33115 ft 495 kts 195°
2026-04-15 13:54 48.54165 8.26211 33209 ft 506 kts 194°
2026-04-15 13:55 48.50646 8.25372 33193 ft 517 kts 187°
2026-04-15 13:55 48.47033 8.25184 33202 ft 520 kts 179°
2026-04-15 13:55 48.39833 8.26564 33192 ft 522 kts 171°
2026-04-15 13:56 48.32657 8.28346 33200 ft 523 kts 171°
2026-04-15 13:56 48.25480 8.30084 33197 ft 523 kts 171°
2026-04-15 13:57 48.18300 8.31812 33187 ft 523 kts 171°
2026-04-15 13:57 48.11101 8.33551 33191 ft 523 kts 171°
2026-04-15 13:58 48.03956 8.35285 33180 ft 523 kts 171°
2026-04-15 13:58 47.96767 8.37023 33184 ft 523 kts 171°
2026-04-15 13:59 47.89578 8.38754 33185 ft 524 kts 171°
2026-04-15 13:59 47.82378 8.40484 33185 ft 524 kts 171°
2026-04-15 14:00 47.75172 8.42209 33188 ft 524 kts 171°
2026-04-15 14:00 47.67954 8.43866 33183 ft 524 kts 174°
2026-04-15 14:01 47.57049 8.45456 33196 ft 525 kts 174°
2026-04-15 14:02 47.49799 8.46521 33203 ft 526 kts 174°
2026-04-15 14:02 47.42503 8.47592 33203 ft 527 kts 174°
2026-04-15 14:03 47.35205 8.48660 33206 ft 527 kts 174°
2026-04-15 14:03 47.29121 8.49548 33199 ft 528 kts 174°
2026-04-15 14:04 47.21804 8.50614 33208 ft 528 kts 174°
2026-04-15 14:04 47.13288 8.51854 33209 ft 529 kts 174°
2026-04-15 14:05 47.07163 8.52742 33194 ft 529 kts 174°
2026-04-15 14:05 46.99818 8.53805 33203 ft 530 kts 174°
2026-04-15 14:06 46.92503 8.54859 33212 ft 531 kts 174°
2026-04-15 14:06 46.85114 8.55922 33208 ft 533 kts 174°
2026-04-15 14:07 46.77738 8.56979 33196 ft 533 kts 174°
2026-04-15 14:07 46.70403 8.58028 33175 ft 533 kts 174°
2026-04-15 14:08 46.63010 8.59082 33149 ft 533 kts 174°
2026-04-15 14:08 46.55615 8.60133 33145 ft 533 kts 174°
2026-04-15 14:09 46.48218 8.61139 33119 ft 532 kts 177°
2026-04-15 14:09 46.44528 8.60911 33117 ft 533 kts 188°
2026-04-15 14:09 46.40923 8.59721 33130 ft 531 kts 200°
2026-04-15 14:09 46.37540 8.57619 33119 ft 529 kts 211°
2026-04-15 14:10 46.34456 8.54752 33018 ft 524 kts 218°
2026-04-15 14:10 46.31512 8.51678 32338 ft 523 kts 217°
2026-04-15 14:10 46.28377 8.49107 31570 ft 525 kts 205°
2026-04-15 14:10 46.24932 8.47397 30920 ft 522 kts 194°
2026-04-15 14:11 46.21348 8.46636 30277 ft 518 kts 182°
2026-04-15 14:11 46.17771 8.46848 29589 ft 511 kts 171°
2026-04-15 14:11 46.14309 8.47845 28904 ft 503 kts 165°
2026-04-15 14:11 46.10963 8.49243 28247 ft 496 kts 159°
2026-04-15 14:12 46.07785 8.50968 28054 ft 481 kts 155°
2026-04-15 14:12 46.04740 8.52822 27881 ft 466 kts 156°
2026-04-15 14:12 46.01809 8.54486 27730 ft 452 kts 157°
2026-04-15 14:12 45.98907 8.56067 27597 ft 440 kts 158°
2026-04-15 14:13 45.96074 8.57585 27465 ft 428 kts 157°
2026-04-15 14:13 45.93318 8.59057 27270 ft 418 kts 157°
2026-04-15 14:13 45.90654 8.60644 26928 ft 410 kts 150°
2026-04-15 14:13 45.88226 8.62729 26502 ft 405 kts 141°
2026-04-15 14:14 45.86034 8.65236 26052 ft 401 kts 137°
2026-04-15 14:14 45.83879 8.67777 25626 ft 400 kts 137°
2026-04-15 14:14 45.81722 8.70287 25202 ft 398 kts 137°
2026-04-15 14:14 45.79572 8.72777 24654 ft 399 kts 138°
2026-04-15 14:15 45.77395 8.75287 24081 ft 402 kts 139°
2026-04-15 14:15 45.75087 8.77485 23546 ft 405 kts 149°
2026-04-15 14:15 45.72603 8.79365 22993 ft 403 kts 150°
2026-04-15 14:15 45.70122 8.81256 22367 ft 403 kts 149°
2026-04-15 14:16 45.67652 8.83154 21740 ft 403 kts 150°
2026-04-15 14:16 45.65186 8.85051 21138 ft 402 kts 150°
2026-04-15 14:16 45.62698 8.86855 20532 ft 401 kts 155°
2026-04-15 14:16 45.60053 8.88152 19950 ft 401 kts 165°
2026-04-15 14:17 45.57327 8.88932 19369 ft 399 kts 169°
2026-04-15 14:17 45.54606 8.89643 18733 ft 394 kts 169°
2026-04-15 14:17 45.51968 8.90352 18134 ft 386 kts 169°
2026-04-15 14:17 45.49351 8.91063 17622 ft 376 kts 169°
2026-04-15 14:18 45.46813 8.91754 17079 ft 367 kts 169°
2026-04-15 14:18 45.44313 8.92436 16227 ft 368 kts 169°
2026-04-15 14:18 45.41786 8.93123 15267 ft 372 kts 169°
2026-04-15 14:18 45.39230 8.93817 14327 ft 374 kts 169°
2026-04-15 14:19 45.36671 8.94510 13345 ft 375 kts 168°
2026-04-15 14:19 45.34112 8.95202 12339 ft 374 kts 168°
2026-04-15 14:19 45.31571 8.95888 11587 ft 367 kts 168°
2026-04-15 14:19 45.29104 8.96554 11123 ft 353 kts 168°
2026-04-15 14:20 45.26742 8.97194 10672 ft 339 kts 168°
2026-04-15 14:20 45.24494 8.97805 10343 ft 324 kts 168°
2026-04-15 14:20 45.22339 8.98389 10167 ft 305 kts 167°
2026-04-15 14:20 45.20311 8.98936 10004 ft 287 kts 168°
2026-04-15 14:21 45.18402 8.99445 9848 ft 270 kts 167°
2026-04-15 14:21 45.16613 8.99922 9679 ft 254 kts 167°
2026-04-15 14:21 45.14882 9.00387 9589 ft 254 kts 167°
2026-04-15 14:21 45.13131 9.00859 9565 ft 256 kts 167°
2026-04-15 14:22 45.11394 9.01325 9545 ft 259 kts 167°
2026-04-15 14:22 45.09620 9.01800 9519 ft 260 kts 169°
2026-04-15 14:22 45.07809 9.01755 9473 ft 263 kts 195°
2026-04-15 14:22 45.06210 9.00531 9453 ft 265 kts 224°
2026-04-15 14:23 45.05189 8.98394 9421 ft 264 kts 252°
2026-04-15 14:23 45.04818 8.95863 9405 ft 263 kts 263°
2026-04-15 14:23 45.04612 8.93290 9367 ft 264 kts 268°
2026-04-15 14:23 45.04877 8.90747 9401 ft 264 kts 295°
2026-04-15 14:24 45.05950 8.88641 9385 ft 268 kts 322°
2026-04-15 14:24 45.07617 8.87444 9367 ft 272 kts 347°
2026-04-15 14:24 45.09498 8.86977 9350 ft 279 kts 354°
2026-04-15 14:24 45.11463 8.86658 9307 ft 288 kts 354°
2026-04-15 14:25 45.13468 8.86280 9286 ft 296 kts 353°
2026-04-15 14:25 45.15475 8.85821 9210 ft 286 kts 351°
2026-04-15 14:25 45.17390 8.85329 9021 ft 272 kts 351°
2026-04-15 14:25 45.19178 8.84843 8995 ft 250 kts 351°
2026-04-15 14:26 45.20788 8.84400 9013 ft 229 kts 351°
2026-04-15 14:26 45.22279 8.83989 8992 ft 207 kts 351°
2026-04-15 14:26 45.23670 8.83605 9076 ft 213 kts 351°
2026-04-15 14:26 45.25297 8.83173 9010 ft 263 kts 351°
2026-04-15 14:27 45.27197 8.82665 8996 ft 281 kts 351°
2026-04-15 14:27 45.29115 8.82144 8994 ft 278 kts 351°
2026-04-15 14:27 45.31008 8.81627 9001 ft 276 kts 350°
2026-04-15 14:27 45.32880 8.81114 9021 ft 272 kts 350°
2026-04-15 14:28 45.34720 8.80612 8998 ft 264 kts 350°
2026-04-15 14:28 45.36469 8.80095 8978 ft 250 kts 346°
2026-04-15 14:28 45.38032 8.79226 8895 ft 241 kts 334°
2026-04-15 14:28 45.39485 8.78066 8675 ft 238 kts 332°
2026-04-15 14:29 45.40963 8.76918 8554 ft 246 kts 333°
2026-04-15 14:29 45.42448 8.75789 8464 ft 238 kts 333°
2026-04-15 14:29 45.43904 8.74685 8215 ft 236 kts 333°
2026-04-15 14:29 45.45353 8.73585 7940 ft 237 kts 333°
2026-04-15 14:30 45.46831 8.72458 7806 ft 246 kts 333°
2026-04-15 14:30 45.48361 8.71291 7775 ft 253 kts 333°
2026-04-15 14:30 45.49897 8.70113 7736 ft 246 kts 333°
2026-04-15 14:30 45.51376 8.68978 7642 ft 237 kts 333°
2026-04-15 14:31 45.52798 8.67889 7459 ft 234 kts 333°
2026-04-15 14:31 45.54239 8.66784 7218 ft 234 kts 332°
2026-04-15 14:31 45.55677 8.65680 6983 ft 234 kts 332°
2026-04-15 14:31 45.57106 8.64583 6745 ft 233 kts 332°
2026-04-15 14:32 45.58533 8.63487 6505 ft 233 kts 332°
2026-04-15 14:32 45.59951 8.62396 6293 ft 229 kts 332°
2026-04-15 14:32 45.61352 8.61318 6022 ft 226 kts 332°
2026-04-15 14:32 45.62719 8.60358 6009 ft 210 kts 340°
2026-04-15 14:33 45.64096 8.59852 5848 ft 207 kts 350°
2026-04-15 14:33 45.65506 8.59500 5670 ft 209 kts 349°
2026-04-15 14:33 45.66915 8.59121 5452 ft 199 kts 349°
2026-04-15 14:33 45.68270 8.58742 5293 ft 195 kts 349°
2026-04-15 14:34 45.69587 8.58369 5118 ft 191 kts 348°
2026-04-15 14:34 45.70881 8.58003 4941 ft 189 kts 348°
2026-04-15 14:34 45.72192 8.57630 4644 ft 195 kts 349°
2026-04-15 14:34 45.73539 8.57255 4370 ft 197 kts 348°
2026-04-15 14:35 45.74879 8.56887 4013 ft 197 kts 348°
2026-04-15 14:35 45.76237 8.56628 3576 ft 196 kts
2026-04-15 14:35 45.77484 8.57343 3019 ft 197 kts 42°
2026-04-15 14:35 45.78172 8.58970 2565 ft 191 kts 77°
2026-04-15 14:36 45.78373 8.60821 2136 ft 187 kts 86°
2026-04-15 14:36 45.78483 8.62579 2009 ft 166 kts 87°
2026-04-15 14:36 45.78547 8.64134 2161 ft 164 kts 89°
2026-04-15 14:36 45.78644 8.65905 2686 ft 188 kts 84°
2026-04-15 14:37 45.78688 8.67747 3546 ft 182 kts 104°
2026-04-15 14:37 45.78091 8.69366 4078 ft 196 kts 136°
2026-04-15 14:37 45.76830 8.70518 3649 ft 235 kts 160°
2026-04-15 14:37 45.75142 8.70975 3077 ft 252 kts 175°
2026-04-15 14:38 45.73400 8.71066 3005 ft 248 kts 178°
2026-04-15 14:38 45.71692 8.71054 2590 ft 242 kts 179°
2026-04-15 14:38 45.70102 8.71286 2169 ft 209 kts 168°
2026-04-15 14:38 45.68822 8.71702 1879 ft 171 kts 168°
2026-04-15 14:39 45.67745 8.72051 1598 ft 149 kts 168°
2026-04-15 14:39 45.66625 8.72355 1342 ft 180 kts 169°
2026-04-15 14:39 45.65458 8.72687 1036 ft 178 kts 169°
2026-04-15 14:39 45.64288 8.73013 801 ft 183 kts 169°
2026-04-15 14:40 45.63197 8.73302 737 ft 122 kts 169°
2026-04-15 14:40 45.62725 8.73427 732 ft 13 kts 169°
2026-04-15 14:40 45.62708 8.73432 731 ft 7 kts 169°
2026-04-15 14:40 45.62605 8.73457 730 ft 21 kts 177°
2026-04-15 14:41 45.62542 8.73424 731 ft 1 kts 246°
2026-04-15 14:41 45.62541 8.73354 730 ft 13 kts 296°
2026-04-15 14:41 45.62608 8.73206 731 ft 22 kts 304°
2026-04-15 14:41 45.62630 8.73162 730 ft 6 kts 305°
2026-04-15 14:42 45.62676 8.73069 733 ft 16 kts 305°
2026-04-15 14:42 45.62754 8.72924 736 ft 22 kts 319°
2026-04-15 14:42 45.62888 8.72850 737 ft 22 kts 347°
2026-04-15 14:42 45.63068 8.72804 740 ft 31 kts 350°
2026-04-15 14:43 45.63204 8.72770 742 ft 0 kts 350°
2026-04-15 14:43 45.63218 8.72766 743 ft 7 kts 350°
2026-04-15 14:43 45.63301 8.72744 744 ft 17 kts 345°
2026-04-15 14:43 45.63402 8.72618 746 ft 23 kts 276°
2026-04-15 14:44 45.63376 8.72353 748 ft 32 kts 259°
2026-04-15 14:44 45.63326 8.72001 751 ft 36 kts 258°
2026-04-15 14:44 45.63284 8.71731 749 ft 23 kts 246°
2026-04-15 14:44 45.63217 8.71628 747 ft 19 kts 228°
2026-04-15 14:45 45.63182 8.71563 747 ft 0 kts 234°